Date String (YYYY-MM-DD hh:mm:ss) UTC,Instrument flags,Ambient pressure (hPa),Sample flow (lpm),Bypass flow (lpm),Sample temperature (°C),Ambient temperature (°C),ASC tube jacket temperature (°C),LED temperature (°C),Box temperature (°C),Sample RH (%),Mass concentration (μg/m³),Mass concentration (μg/m³)
DateTimeUTC,F1_M11,P_M11,Q1_M11,Q2_M11,T1_M11,T2_M11,T3_M11,T4_M11,T5_M11,U1_M11,X0_M11,X2_M11
2021-08-11 19:00:00,FlowAlarm;OPCInstrumentWarning,0829.1,4.99,0.00,28.8,26.8,00.0,38.0,30.7,20.3,0045.87,0027.92
2021-08-11 19:01:00,FlowAlarm;OPCInstrumentWarning,0829.0,4.98,0.00,28.8,27.2,00.0,38.0,30.9,20.6,0046.27,0027.87
2021-08-11 19:02:00,FlowAlarm;OPCInstrumentWarning,0829.1,5.00,0.00,28.9,27.6,00.0,38.0,31.0,21.1,0045.52,0027.81
2021-08-11 19:03:00,FlowAlarm;OPCInstrumentWarning,0829.0,5.00,0.00,28.9,27.1,00.0,38.0,30.8,20.3,0045.88,0027.75
2021-08-11 19:04:00,FlowAlarm;OPCInstrumentWarning,0829.0,4.99,0.00,28.8,25.7,00.0,38.0,30.4,20.5,0046.42,0027.71
2021-08-11 19:05:00,FlowAlarm;OPCInstrumentWarning,0828.9,5.01,0.00,28.7,25.6,00.0,38.0,30.3,20.3,0046.83,0027.68
2021-08-11 19:06:00,FlowAlarm;OPCInstrumentWarning,0828.9,4.99,0.00,28.7,26.1,00.0,37.9,30.5,21.1,0047.71,0027.58
2021-08-11 19:07:00,FlowAlarm;OPCInstrumentWarning,0828.9,5.00,0.00,28.7,26.6,00.0,37.9,30.6,21.1,0048.96,0027.41
2021-08-11 19:08:00,FlowAlarm;OPCInstrumentWarning,0829.0,5.01,0.00,28.7,27.0,00.0,37.9,30.7,20.1,0048.56,0027.33
2021-08-11 19:09:00,FlowAlarm;OPCInstrumentWarning,0828.8,5.00,0.00,28.8,27.4,00.0,37.9,30.8,20.5,0049.04,0027.25
2021-08-11 19:10:00,FlowAlarm;OPCInstrumentWarning,0828.9,5.01,0.00,28.8,27.6,00.0,37.9,30.9,20.8,0048.57,0027.21
2021-08-11 19:11:00,FlowAlarm;OPCInstrumentWarning,0828.9,4.99,0.00,28.8,26.4,00.0,37.9,30.5,20.7,0048.78,0027.20
2021-08-11 19:12:00,FlowAlarm;OPCInstrumentWarning,0828.9,5.01,0.00,28.7,25.5,00.0,37.9,30.2,20.1,0048.43,0027.23
2021-08-11 19:13:00,FlowAlarm;OPCInstrumentWarning,0828.9,5.00,0.00,28.6,25.9,00.0,37.9,30.4,19.6,0049.03,0027.27
2021-08-11 19:14:00,FlowAlarm;OPCInstrumentWarning,0828.9,5.00,0.00,28.6,26.4,00.0,37.8,30.5,19.9,0048.19,0027.25
2021-08-11 19:15:00,FlowAlarm;OPCInstrumentWarning,0828.9,4.99,0.00,28.6,26.8,00.0,37.8,30.6,20.1,0048.33,0027.14
2021-08-11 19:16:00,FlowAlarm;OPCInstrumentWarning,0828.9,5.00,0.00,28.7,27.2,00.0,37.8,30.7,20.8,0047.96,0027.02
2021-08-11 19:17:00,FlowAlarm;OPCInstrumentWarning,0828.8,5.02,0.00,28.8,27.6,00.0,37.9,30.9,21.4,0046.75,0026.96
2021-08-11 19:18:00,FlowAlarm;OPCInstrumentWarning,0828.9,4.99,0.00,28.8,27.1,00.0,37.9,30.7,20.8,0045.23,0026.93
2021-08-11 19:19:00,FlowAlarm;OPCInstrumentWarning,0828.9,5.01,0.00,28.7,25.8,00.0,37.8,30.3,21.3,0044.46,0026.90
2021-08-11 19:20:00,FlowAlarm;OPCInstrumentWarning,0828.8,4.99,0.00,28.6,25.8,00.0,37.8,30.2,21.1,0043.30,0026.85
2021-08-11 19:21:00,FlowAlarm;OPCInstrumentWarning,0828.8,5.00,0.00,28.5,26.2,00.0,37.8,30.3,20.2,0043.25,0026.82
2021-08-11 19:22:00,FlowAlarm;OPCInstrumentWarning,0829.0,5.00,0.00,28.5,26.6,00.0,37.8,30.5,19.9,0041.92,0026.87
2021-08-11 19:23:00,FlowAlarm;OPCInstrumentWarning,0828.9,5.00,0.00,28.6,27.1,00.0,37.8,30.6,20.1,0042.85,0026.95
2021-08-11 19:24:00,FlowAlarm;OPCInstrumentWarning,0829.3,4.99,0.00,28.7,27.4,00.0,37.8,30.8,19.7,0043.89,0026.95
2021-08-11 19:25:00,FlowAlarm;OPCInstrumentWarning,0829.3,5.01,0.00,28.7,27.5,00.0,37.8,30.8,20.2,0043.77,0027.04
2021-08-11 19:26:00,FlowAlarm;OPCInstrumentWarning,0829.3,4.99,0.00,28.7,26.3,00.0,37.8,30.4,20.3,0044.04,0027.22
2021-08-11 19:27:00,FlowAlarm;OPCInstrumentWarning,0829.1,5.01,0.00,28.6,25.5,00.0,37.8,30.2,21.0,0043.48,0027.29
2021-08-11 19:28:00,FlowAlarm;OPCInstrumentWarning,0829.3,4.98,0.00,28.5,25.9,00.0,37.8,30.3,20.1,0044.46,0027.35
2021-08-11 19:29:00,FlowAlarm;OPCInstrumentWarning,0829.1,5.00,0.00,28.5,26.4,00.0,37.8,30.4,19.4,0045.18,0027.42
2021-08-11 19:30:00,FlowAlarm;OPCInstrumentWarning,0829.4,5.00,0.00,28.6,26.9,00.0,37.8,30.6,19.3,0046.45,0027.52
2021-08-11 19:31:00,FlowAlarm;OPCInstrumentWarning,0829.0,5.01,0.00,28.6,27.3,00.0,37.8,30.7,18.9,0047.24,0027.57
2021-08-11 19:32:00,FlowAlarm;OPCInstrumentWarning,0828.8,5.00,0.00,28.7,27.6,00.0,37.8,30.8,19.0,0047.87,0027.67
2021-08-11 19:33:00,FlowAlarm;OPCInstrumentWarning,0828.8,5.00,0.00,28.8,27.7,00.0,37.8,30.8,19.5,0048.94,0027.75
2021-08-11 19:34:00,FlowAlarm;OPCInstrumentWarning,0828.7,5.02,0.00,28.7,26.3,00.0,37.8,30.5,19.3,0049.29,0027.69
2021-08-11 19:35:00,FlowAlarm;OPCInstrumentWarning,0828.7,5.00,0.00,28.6,25.5,00.0,37.8,30.2,19.8,0048.71,0027.61
2021-08-11 19:36:00,FlowAlarm;OPCInstrumentWarning,0828.9,4.99,0.00,28.6,25.8,00.0,37.8,30.3,19.3,0049.25,0027.45
2021-08-11 19:37:00,FlowAlarm;OPCInstrumentWarning,0828.8,5.00,0.00,28.5,26.2,00.0,37.8,30.4,19.4,0049.03,0027.29
2021-08-11 19:38:00,FlowAlarm;OPCInstrumentWarning,0829.1,5.01,0.00,28.5,26.7,00.0,37.7,30.5,19.1,0050.24,0027.26
2021-08-11 19:39:00,FlowAlarm;OPCInstrumentWarning,0829.2,5.00,0.00,28.6,27.2,00.0,37.7,30.6,19.4,0049.19,0027.20
2021-08-11 19:40:00,FlowAlarm;OPCInstrumentWarning,0829.2,4.99,0.00,28.7,27.5,00.0,37.8,30.8,19.2,0048.45,0027.15
2021-08-11 19:41:00,FlowAlarm;OPCInstrumentWarning,0828.7,5.01,0.00,28.7,27.8,00.0,37.8,30.9,19.4,0048.60,0027.08
2021-08-11 19:42:00,FlowAlarm;OPCInstrumentWarning,0828.8,4.99,0.00,28.8,27.9,00.0,37.8,30.9,19.8,0050.18,0026.98
2021-08-11 19:43:00,FlowAlarm;OPCInstrumentWarning,0828.9,4.99,0.00,28.8,26.5,00.0,37.8,30.5,19.2,0050.38,0026.80
2021-08-11 19:44:00,FlowAlarm;OPCInstrumentWarning,0829.1,5.01,0.00,28.6,25.5,00.0,37.8,30.2,19.3,0049.10,0026.72
2021-08-11 19:45:00,FlowAlarm;OPCInstrumentWarning,0828.8,4.99,0.00,28.6,25.9,00.0,37.8,30.3,19.8,0049.09,0026.67
2021-08-11 19:46:00,FlowAlarm;OPCInstrumentWarning,0829.1,5.00,0.00,28.5,26.3,00.0,37.7,30.4,20.3,0048.43,0026.58
2021-08-11 19:47:00,FlowAlarm;OPCInstrumentWarning,0828.8,5.00,0.00,28.5,26.7,00.0,37.7,30.5,20.4,0047.08,0026.52
2021-08-11 19:48:00,FlowAlarm;OPCInstrumentWarning,0828.9,5.00,0.00,28.6,27.1,00.0,37.7,30.6,19.9,0047.55,0026.43
2021-08-11 19:49:00,FlowAlarm;OPCInstrumentWarning,0828.9,5.00,0.00,28.7,27.5,00.0,37.8,30.7,20.2,0046.63,0026.34
2021-08-11 19:50:00,FlowAlarm;OPCInstrumentWarning,0829.0,5.01,0.00,28.7,27.8,00.0,37.8,30.8,20.3,0047.53,0026.30
2021-08-11 19:51:00,FlowAlarm;OPCInstrumentWarning,0829.0,4.99,0.00,28.8,27.9,00.0,37.8,30.9,20.7,0048.18,0026.25
2021-08-11 19:52:00,FlowAlarm;OPCInstrumentWarning,0828.8,5.00,0.00,28.8,26.6,00.0,37.8,30.6,19.6,0048.12,0026.24
2021-08-11 19:53:00,FlowAlarm;OPCInstrumentWarning,0828.8,5.00,0.00,28.7,25.5,00.0,37.8,30.2,19.3,0046.54,0026.27
2021-08-11 19:54:00,FlowAlarm;OPCInstrumentWarning,0828.8,5.00,0.00,28.6,25.9,00.0,37.8,30.3,18.6,0047.26,0026.26
2021-08-11 19:55:00,FlowAlarm;OPCInstrumentWarning,0828.5,5.01,0.00,28.6,26.2,00.0,37.8,30.4,18.7,0047.19,0026.16
2021-08-11 19:56:00,FlowAlarm;OPCInstrumentWarning,0828.5,5.00,0.00,28.6,26.7,00.0,37.7,30.5,19.1,0045.67,0026.04
2021-08-11 19:57:00,FlowAlarm;OPCInstrumentWarning,0828.5,5.01,0.00,28.6,27.1,00.0,37.8,30.6,19.4,0045.85,0026.01
2021-08-11 19:58:00,FlowAlarm;OPCInstrumentWarning,0828.5,4.99,0.00,28.7,27.5,00.0,37.8,30.7,19.2,0046.30,0026.05
2021-08-11 19:59:00,FlowAlarm;OPCInstrumentWarning,0828.5,5.01,0.00,28.7,27.8,00.0,37.8,30.8,19.5,0045.87,0026.11
